Location: Chiroubles
(46.1812°N, 4.6660°E)
Time: 23:49:35
(UTC+00:00)

S-56A Canister/Altair - All Passes

Search period start: 05 December 2020 00:00
Search period end: 15 December 2020 00:00
Orbit: 632 x 2500 km, 38.9° (Epoch: 05 December)

Date Brightness Start Highest point End Pass type
(mag) Time Alt. Az. Time Alt. Az. Time Alt. Az.
05 Dec - 13:59:50 10° SSE 14:06:18 14° SE 14:12:20 10° ESE daylight
05 Dec - 15:58:13 10° SSW 16:10:39 36° SSE 16:20:31 10° E daylight
05 Dec - 18:02:39 10° WSW 18:15:39 55° S 18:24:44 10° E visible
05 Dec - 20:09:08 10° W 20:20:20 54° SSW 20:27:46 10° ESE visible
05 Dec - 22:16:08 10° W 22:23:44 29° SW 22:29:14 10° SSE visible
06 Dec - 13:28:24 10° SSE 13:33:13 12° SE 13:37:50 10° ESE daylight
06 Dec - 15:25:03 10° SSW 15:37:25 34° SSE 15:47:34 10° E daylight
06 Dec - 17:29:02 10° WSW 17:42:27 54° SSE 17:52:06 10° E visible
06 Dec - 19:35:25 10° W 19:47:22 57° S 19:55:22 10° ESE visible
06 Dec - 21:42:25 10° W 21:51:05 33° SSW 21:57:12 10° SSE visible
07 Dec - 12:58:57 10° SE 13:00:09 10° SE 13:01:19 10° SE daylight
07 Dec - 14:51:59 10° SSW 15:04:09 32° SE 15:14:31 10° E daylight
07 Dec - 16:55:27 10° SW 17:09:12 53° SSE 17:19:24 10° E visible
07 Dec - 19:01:40 10° W 19:14:20 59° S 19:22:54 10° ESE visible
07 Dec - 21:08:41 10° W 21:18:22 38° SSW 21:25:04 10° SE visible
07 Dec - 23:18:27 10° WSW 23:20:35 11° SW 23:22:33 10° SW night (unlit)
08 Dec - 14:19:03 10° SSW 14:30:53 29° SE 14:41:21 10° E daylight
08 Dec - 16:21:56 10° SW 16:35:54 51° SSE 16:46:40 10° E visible
08 Dec - 18:27:55 10° WSW 18:41:12 60° S 18:50:24 10° ESE visible
08 Dec - 20:34:55 10° W 20:45:34 43° SSW 20:52:52 10° SE visible
08 Dec - 22:43:31 10° W 22:48:06 15° SW 22:51:56 10° SSW visible
09 Dec - 13:46:17 10° S 13:57:38 27° SE 14:08:01 10° E daylight
09 Dec - 15:48:30 10° SW 16:02:33 50° SSE 16:13:48 10° E daylight
09 Dec - 17:54:11 10° WSW 18:08:00 61° S 18:17:49 10° ESE visible
09 Dec - 20:01:08 10° W 20:12:41 47° SSW 20:20:35 10° SE visible
09 Dec - 22:09:14 10° W 22:15:33 19° SW 22:20:33 10° S visible
10 Dec - 13:13:41 10° S 13:24:23 24° SE 13:34:32 10° E daylight
10 Dec - 15:15:09 10° SW 15:29:10 48° SSE 15:40:52 10° E daylight
10 Dec - 17:20:29 10° WSW 17:34:43 62° S 17:45:10 10° E visible
10 Dec - 19:27:21 10° W 19:39:42 51° SSW 19:48:12 10° SE visible
10 Dec - 21:35:09 10° W 21:42:55 23° SW 21:48:51 10° S visible
11 Dec - 12:41:17 10° S 12:51:11 22° SE 13:00:51 10° E daylight
11 Dec - 14:41:54 10° SW 14:55:46 45° SSE 15:07:51 10° E daylight
11 Dec - 16:46:50 10° WSW 17:01:21 62° S 17:12:25 10° E visible
11 Dec - 18:53:33 10° W 19:06:38 55° SSW 19:15:47 10° ESE visible
11 Dec - 21:01:09 10° W 21:10:14 28° SW 21:16:58 10° SSE visible
12 Dec - 12:09:08 10° S 12:18:01 19° SE 12:26:55 10° E daylight
12 Dec - 14:08:47 10° SW 14:22:21 43° SSE 14:34:43 10° E daylight
12 Dec - 16:13:15 10° WSW 16:27:56 61° S 16:39:37 10° E visible
12 Dec - 18:19:46 10° W 18:33:28 58° SSW 18:43:15 10° ESE visible
12 Dec - 20:27:12 10° W 20:37:28 32° SW 20:44:56 10° SSE visible
13 Dec - 11:37:18 10° SSE 11:44:55 16° SE 11:52:40 10° E daylight
13 Dec - 13:35:46 10° SSW 13:48:57 40° SSE 14:01:29 10° E daylight
13 Dec - 15:39:44 10° WSW 15:54:29 60° S 16:06:43 10° E daylight
13 Dec - 17:46:01 10° W 18:00:12 60° SSW 18:10:40 10° ESE visible
13 Dec - 19:53:18 10° W 20:04:36 37° SW 20:12:46 10° SSE visible
13 Dec - 22:05:18 10° WSW 22:06:50 10° SW 22:08:19 10° SW visible
14 Dec - 11:06:01 10° SSE 11:11:52 14° SE 11:17:53 10° ESE daylight
14 Dec - 13:02:54 10° SSW 13:15:36 37° SE 13:28:08 10° E daylight
14 Dec - 15:06:19 10° WSW 15:20:59 59° SSE 15:33:44 10° E daylight
14 Dec - 17:12:19 10° W 17:26:53 62° S 17:37:59 10° ESE visible
14 Dec - 19:19:25 10° W 19:31:38 41° SSW 19:40:31 10° SE visible
14 Dec - 21:29:13 10° W 21:34:14 14° SW 21:38:33 10° SSW visible
